Temp
16 16 16 15 15 15 15 15 15 15 14 14 14 14 14 13 13 13 13 13 12 12 12 12 12 11 11 11 11 11 11 11 12 12 12 12 11 11 11 11 11 11 11 11 10 10 10 10 10 10 9 9 9 9 9 9 9 9 10 10 10 10 10 10 11 11 12 12 12 12 12 13 13 14 14 15 14 13 13 13 13 13 13 13 12
17 16 16 15 15 15 15 15 15 14 14 14 14 14 14 13 13 13 13 12 12 12 12 11 11 11 11 11 11 11 11 11 11 12 11 11 11 11 11 11 11 11 10 10 10 10 10 10 10 10 9 9 9 8 8 8 9 9 10 9 10 10 10 10 10 11 11 12 12 12 12 12 12 13 14 14 14 13 13 13 13 13 13 12 12
16 16 16 15 15 15 15 15 15 14 14 14 14 14 13 13 13 13 12 12 12 12 12 11 11 11 11 11 11 11 11 11 11 11 11 11 11 11 11 11 10 10 10 10 10 10 10 10 10 10 9 8 8 8 8 8 9 9 9 9 9 10 10 10 10 10 10 11 11 12 12 12 12 12 13 14 13 13 12 13 13 13 12 12 12
16 16 16 15 15 15 15 15 14 14 14 14 14 14 13 13 13 12 12 12 12 12 11 11 11 11 11 11 11 11 11 11 11 11 11 11 11 11 11 11 10 10 10 10 10 10 10 10 10 9 8 7 7 7 7 8 8 9 9 9 9 9 9 9 10 10 10 10 11 11 11 11 11 12 13 13 12 12 12 12 12 12 12 12 12
16 16 15 15 15 15 15 15 14 14 14 14 14 14 13 13 13 12 12 12 12 12 12 11 11 11 11 11 11 11 11 11 11 11 11 11 11 11 11 11 10 10 10 10 10 10 9 9 9 9 8 7 7 7 7 8 8 8 8 9 9 9 9 9 9 10 10 10 10 11 11 11 11 12 12 12 12 11 11 11 12 12 12 11 11
16 16 15 15 15 15 15 15 14 14 14 14 14 14 13 13 13 12 12 12 12 12 12 12 11 11 11 11 11 11 11 11 11 11 11 11 11 11 11 11 11 10 10 10 10 9 9 9 9 9 8 7 7 7 7 8 8 8 8 8 9 9 9 9 9 9 10 10 10 10 10 11 11 11 12 12 11 11 10 10 10 11 11 11 10
16 16 16 15 15 15 15 15 14 14 14 14 14 14 14 13 13 12 12 12 12 12 12 12 12 12 12 12 11 11 11 11 11 11 11 11 11 11 11 11 11 10 10 10 9 9 9 9 9 9 8 7 7 7 7 8 8 8 8 8 8 8 9 9 9 9 9 9 10 10 10 11 11 11 11 11 11 11 10 9 8 9 9 10 10
16 16 16 15 15 15 15 15 15 14 14 14 14 14 14 13 13 13 13 12 12 12 12 12 12 12 12 12 12 12 12 12 12 11 11 11 11 11 11 11 10 10 10 10 9 9 9 9 9 9 8 7 7 7 7 7 8 8 8 8 8 8 8 9 9 9 9 9 9 10 10 10 10 11 11 11 10 10 10 9 8 8 8 9 9
16 16 15 15 16 16 15 15 15 14 14 14 14 14 14 13 13 13 13 13 12 12 12 12 12 12 12 12 12 12 12 12 12 12 11 11 11 11 11 11 10 10 10 10 10 9 9 9 9 9 8 8 7 7 7 7 7 7 7 7 7 8 8 8 8 9 9 9 9 10 10 10 10 10 10 10 10 10 10 9 9 8 7 7 7
16 16 16 16 16 16 15 15 15 14 14 14 14 14 14 14 13 13 13 13 13 13 12 12 12 12 12 12 12 12 12 12 12 12 11 11 11 11 11 10 10 10 10 10 10 9 9 9 9 9 9 8 8 7 7 7 7 7 7 7 7 7 7 8 8 8 8 9 9 9 10 10 10 10 10 10 10 11 10 9 8 8 7 6 6
16 16 16 16 16 16 15 15 15 15 15 14 14 14 14 13 13 13 13 13 13 13 12 12 12 12 12 12 12 12 12 12 12 12 12 11 11 11 11 10 10 10 10 10 9 9 9 9 9 9 9 8 8 7 7 7 7 7 7 7 6 7 7 7 8 8 8 8 8 9 9 9 10 10 10 10 10 10 10 9 8 7 6 6 6
16 16 16 16 16 16 15 15 15 15 15 15 14 14 14 13 13 13 13 13 13 13 13 12 12 12 12 12 12 12 12 12 12 12 12 12 11 11 11 10 10 10 10 10 9 9 9 9 9 9 8 8 8 7 7 6 6 7 7 7 6 6 7 7 7 7 7 8 8 8 8 9 9 9 9 10 10 10 10 9 8 7 7 7 7
16 16 16 16 16 16 15 15 15 15 15 15 14 14 14 14 14 14 14 13 13 13 13 13 13 13 12 12 12 12 12 12 12 12 12 12 11 11 11 11 10 10 10 10 9 9 9 9 8 8 8 8 8 7 7 6 6 6 7 7 7 7 7 6 7 7 7 7 7 8 8 8 8 9 9 9 9 9 9 9 8 8 7 8 8
16 16 16 16 16 16 15 15 15 15 15 15 15 14 14 14 14 14 14 14 13 13 13 13 13 13 13 13 13 12 12 12 12 12 12 11 11 11 11 11 10 10 10 10 9 9 9 8 8 8 8 8 8 7 6 6 5 5 5 6 6 7 7 7 7 7 7 7 7 7 7 8 8 8 9 9 9 9 9 9 9 8 8 8 8
16 16 16 16 16 16 15 15 15 15 15 15 15 14 14 14 14 15 14 14 14 13 13 13 13 13 13 13 13 12 12 12 12 12 12 12 11 11 11 11 10 10 10 10 10 9 9 9 8 8 8 8 7 7 6 5 4 4 4 4 5 6 6 7 7 7 7 7 7 7 7 7 7 8 8 8 8 9 9 9 10 9 8 8 8
16 16 16 16 16 16 15 15 15 15 15 15 15 15 15 15 15 15 14 14 13 13 13 13 13 13 13 13 12 12 12 12 12 12 11 11 11 11 11 11 10 10 10 10 10 10 9 9 8 8 8 8 7 7 6 5 4 4 3 3 4 5 5 7 8 8 7 6 6 7 7 7 7 7 8 8 8 9 9 9 9 9 8 8 7
16 16 16 16 16 16 16 15 15 15 15 15 15 15 14 14 14 14 13 13 13 12 12 12 12 12 12 12 12 12 12 12 11 11 11 11 10 10 10 10 10 10 10 10 10 10 9 9 8 8 8 8 8 7 6 5 4 4 4 4 4 5 5 7 7 7 7 6 6 6 6 7 7 7 7 7 8 8 8 8 8 8 8 8 6
16 16 16 16 16 16 15 14 14 14 14 14 14 14 13 14 14 13 12 11 11 11 11 11 11 11 11 11 11 11 11 11 11 11 11 11 10 10 10 10 10 10 10 10 10 10 9 9 8 8 8 8 8 7 6 6 5 5 5 4 4 5 6 6 6 6 6 6 5 6 6 6 7 7 7 7 8 8 8 8 8 8 8 8 7
16 16 15 15 15 15 14 14 13 13 13 13 13 13 13 13 13 12 12 11 11 11 11 10 11 11 11 11 11 11 11 11 11 11 11 11 10 9 9 9 10 10 10 10 10 10 9 9 8 8 8 8 7 7 7 6 5 5 5 4 3 5 6 6 5 5 5 5 5 6 6 6 7 7 7 7 7 8 8 8 8 8 8 8 7
15 15 15 14 14 14 14 14 14 13 13 13 13 13 12 12 12 11 11 11 11 11 11 11 11 11 11 11 11 11 11 11 11 11 10 10 10 9 9 8 9 10 10 9 9 9 9 9 8 8 8 8 7 7 7 6 6 6 5 4 4 5 6 5 5 5 5 5 5 6 6 6 7 7 7 7 7 8 8 8 8 8 9 9 8
14 14 14 14 14 14 14 14 14 14 13 13 13 12 12 11 11 11 11 11 11 11 11 11 11 11 11 11 11 11 11 10 10 10 10 10 10 9 8 8 9 9 9 9 9 8 8 8 8 8 8 8 7 7 7 7 6 6 6 6 6 5 6 5 5 5 5 5 5 6 6 6 6 7 7 7 7 8 8 8 8 8 9 9 8
15 14 14 14 14 14 14 14 14 13 13 12 12 12 11 11 11 11 11 11 11 11 11 11 11 11 11 11 11 11 11 10 10 10 10 9 9 9 9 9 9 9 9 8 8 8 8 8 8 8 7 7 7 7 7 7 7 6 7 7 6 6 5 5 5 5 5 5 5 6 6 6 6 6 6 7 7 8 8 8 8 8 8 9 9
14 14 14 14 14 14 13 13 13 12 12 11 11 11 11 11 11 11 10 10 10 10 10 9 9 9 9 9 10 10 10 10 10 10 10 9 9 9 9 9 9 8 8 8 8 8 8 8 7 7 7 7 7 7 7 7 7 7 7 7 6 6 6 5 5 5 5 5 5 6 6 6 6 6 6 7 7 7 8 8 9 8 8 8 9
14 14 14 13 13 13 13 12 12 11 11 11 11 11 11 10 10 10 9 9 8 8 8 7 7 7 7 7 8 9 10 10 10 10 10 9 9 9 9 9 9 8 8 8 8 8 8 8 7 7 7 7 7 7 7 7 7 7 7 7 6 6 6 6 5 5 5 5 5 6 6 6 6 6 6 7 7 7 7 8 8 9 9 8 8
14 14 13 13 13 13 12 12 11 11 11 11 11 10 10 9 9 8 8 7 7 7 6 6 6 6 6 6 6 7 8 8 9 9 9 9 9 9 9 9 9 8 8 8 8 8 7 7 6 6 7 7 7 7 7 7 7 7 7 6 6 6 6 5 5 5 4 5 5 6 6 6 6 6 7 7 6 6 7 7 7 8 9 9 8
13 13 13 13 12 12 11 11 11 11 11 11 10 10 9 8 7 7 7 6 6 6 5 5 5 5 5 5 5 5 6 6 7 8 8 9 9 9 9 9 9 8 8 8 8 7 7 6 6 6 7 7 7 7 7 7 7 7 7 6 6 6 5 5 5 5 4 5 5 5 6 6 6 6 6 6 6 6 6 6 7 7 8 9 8
13 13 13 12 11 11 11 10 10 10 10 10 9 9 8 7 6 6 6 6 5 5 5 5 4 4 4 4 4 4 5 5 5 6 6 7 7 8 8 8 8 8 8 8 8 7 7 6 6 6 7 7 7 7 7 7 7 7 7 7 6 6 6 5 5 5 4 4 5 5 5 6 6 6 7 6 6 6 6 6 7 7 8 8 8
13 12 12 11 11 11 10 10 9 9 9 8 8 7 7 6 6 6 6 5 4 4 4 4 4 4 3 3 4 4 4 4 4 4 4 4 4 5 5 6 7 7 7 7 7 7 6 6 6 7 7 7 7 7 7 7 7 7 7 7 6 6 6 6 5 5 5 5 4 5 5 5 6 6 6 6 6 6 6 6 7 7 7 7 7
12 11 11 10 10 10 10 9 8 8 7 7 7 7 6 6 5 5 5 5 5 4 4 3 3 3 3 3 3 3 3 3 3 3 3 4 4 4 4 4 5 5 5 6 6 6 6 6 6 7 7 7 7 7 7 7 7 7 7 6 6 6 6 6 5 4 5 5 4 4 5 5 5 5 6 6 6 6 6 6 6 7 7 6 6
11 10 10 10 9 9 8 8 7 7 6 6 6 6 6 6 6 5 5 5 5 5 4 4 4 3 3 3 3 2 2 2 2 3 3 4 4 4 4 4 4 4 4 4 4 5 5 5 6 6 6 7 7 7 7 7 7 7 6 6 6 6 6 6 5 5 5 5 4 4 4 4 5 5 5 6 6 6 6 6 6 6 6 6 6
10 10 9 9 8 8 7 7 6 6 6 5 5 5 5 5 5 5 5 5 5 5 5 5 4 4 3 2 2 1 1 1 2 2 3 3 3 4 4 4 4 4 3 3 3 4 4 4 5 6 6 6 6 7 6 6 7 6 6 6 6 6 5 5 5 5 5 5 4 4 4 4 4 5 5 5 6 6 6 6 6 6 6 6 6
9 9 8 8 8 7 7 6 6 6 5 5 4 4 3 3 3 3 3 3 3 3 3 3 4 4 3 2 1 0 0 1 1 2 2 2 2 2 2 3 3 3 2 1 1 3 3 3 4 5 5 6 6 7 6 6 6 6 6 6 5 5 5 5 5 5 5 5 4 4 4 4 4 5 5 5 5 5 5 5 6 5 5 5 6
9 8 8 7 7 7 6 6 5 5 4 4 3 3 2 2 2 2 2 2 2 2 2 2 2 2 1 1 0 -0 -0 0 1 0 0 0 1 1 1 2 2 2 2 1 1 1 2 2 3 5 5 6 6 7 6 6 6 6 6 6 5 5 5 5 5 5 5 5 4 4 4 4 4 4 4 4 4 4 5 5 5 5 5 5 5
8 8 7 7 7 6 6 5 4 4 3 3 3 2 2 2 2 1 1 1 1 1 1 1 0 -0 -1 -1 -1 -1 -1 -0 -0 -0 -1 -1 -0 0 1 1 1 1 1 1 1 1 1 2 3 4 6 6 6 6 6 6 6 6 6 6 5 5 5 5 5 5 5 5 4 4 4 4 4 4 4 4 4 4 4 4 5 5 5 5 5
8 7 7 7 7 6 5 4 4 3 3 3 2 2 1 1 1 1 1 1 0 0 0 -0 -1 -1 -1 -1 -2 -2 -2 -1 -1 -1 -1 -1 -1 -0 0 0 1 1 1 1 1 1 1 1 1 3 4 6 6 6 6 6 5 5 6 6 5 5 5 5 5 5 4 4 4 4 4 4 4 4 4 4 4 4 4 4 5 5 4 4 5
7 7 7 6 6 5 5 4 4 3 3 2 2 1 1 1 0 0 0 -0 -0 -1 -1 -1 -1 -1 -2 -2 -2 -2 -2 -1 -1 -1 -1 -1 -1 -0 -0 0 0 1 1 1 1 1 1 1 1 2 3 4 6 6 5 5 5 5 5 5 5 5 5 5 5 4 4 4 4 4 4 4 4 4 4 4 4 4 4 4 4 5 4 4 4
7 6 6 6 5 5 4 4 3 3 2 2 1 1 0 -0 -0 -1 -1 -1 -1 -1 -2 -2 -2 -2 -2 -2 -2 -2 -2 -2 -1 -1 -1 -1 -1 -1 -0 -0 -0 0 0 1 1 1 1 1 1 2 2 4 5 5 5 4 5 5 5 5 4 4 4 4 4 4 4 4 4 4 3 3 3 3 3 3 4 4 4 4 4 4 4 3 3
6 6 5 5 4 4 3 3 2 2 1 1 0 -0 -0 -1 -1 -1 -1 -2 -2 -2 -2 -2 -2 -2 -2 -2 -2 -2 -2 -2 -1 -1 -1 -1 -1 -1 -1 -1 -1 -0 0 0 0 1 1 0 1 1 2 4 4 4 4 4 5 5 4 4 4 4 4 4 4 3 3 3 3 3 3 3 3 3 3 3 4 4 4 4 3 3 4 3 3
6 5 5 4 4 3 3 2 2 1 0 -0 -1 -1 -1 -2 -2 -2 -2 -2 -3 -3 -3 -2 -2 -2 -2 -2 -2 -2 -2 -2 -2 -2 -2 -2 -2 -2 -1 -1 -1 -1 -0 -0 -0 0 1 0 0 1 3 4 4 4 4 4 4 4 4 4 4 3 3 3 3 3 3 3 3 3 3 3 3 3 3 3 3 3 4 4 4 3 3 3 3
5 5 4 4 3 3 2 2 1 0 -1 -1 -1 -2 -2 -2 -3 -3 -3 -3 -3 -3 -3 -2 -2 -2 -3 -3 -3 -3 -3 -2 -2 -2 -2 -2 -2 -2 -2 -1 -1 -1 -1 -1 -1 -0 0 0 1 1 1 2 3 4 4 4 4 3 3 3 3 2 2 1 1 1 2 2 2 2 2 3 3 3 3 3 3 3 3 3 3 3 3 3 3
5 4 4 3 2 2 1 1 -0 -1 -2 -2 -2 -3 -3 -3 -3 -3 -3 -3 -3 -3 -3 -3 -3 -3 -3 -3 -3 -4 -3 -3 -3 -3 -3 -3 -3 -2 -2 -2 -1 -1 -1 -1 -1 -0 0 0 0 0 1 1 3 3 3 3 2 2 2 1 1 1 1 0 0 0 1 1 1 2 2 2 2 2 2 2 2 2 2 2 3 3 3 3 3
4 4 3 2 1 1 -0 -1 -2 -2 -3 -3 -3 -4 -3 -3 -3 -3 -3 -3 -3 -3 -3 -3 -3 -3 -4 -4 -4 -4 -4 -4 -4 -4 -4 -4 -4 -3 -2 -2 -2 -1 -1 -1 -0 -0 0 0 0 0 1 1 1 1 1 1 1 1 0 0 0 0 0 -0 -0 -0 -0 0 1 1 1 2 2 2 2 2 2 2 2 2 2 3 3 3 3
3 3 2 1 1 -1 -2 -2 -3 -3 -4 -4 -4 -4 -4 -3 -3 -3 -3 -4 -4 -3 -3 -3 -3 -4 -4 -4 -5 -5 -5 -5 -5 -5 -5 -5 -4 -3 -2 -2 -2 -1 -1 -1 -0 -0 0 -0 -0 -0 -0 -0 -0 -0 -0 -1 -1 -1 -1 -1 -1 -1 -1 -1 -1 -0 -0 -0 -0 0 1 1 1 1 2 2 2 1 1 1 1 2 2 2 3
3 2 1 1 0 -1 -2 -3 -4 -4 -4 -4 -4 -4 -4 -4 -4 -4 -4 -4 -4 -4 -4 -4 -4 -5 -5 -5 -6 -6 -6 -6 -6 -6 -6 -6 -5 -4 -3 -2 -2 -2 -2 -1 -1 -1 -1 -2 -2 -2 -2 -2 -2 -2 -2 -2 -2 -1 -2 -2 -1 -1 -2 -2 -2 -2 -1 -1 -1 -1 0 1 1 1 1 2 1 1 1 1 1 1 1 2 2
2 1 1 0 -0 -1 -3 -4 -5 -5 -5 -4 -4 -4 -4 -4 -4 -4 -4 -4 -4 -4 -4 -4 -5 -5 -6 -6 -6 -6 -6 -6 -6 -6 -6 -6 -6 -5 -4 -3 -3 -3 -3 -3 -3 -3 -3 -4 -4 -4 -3 -3 -3 -2 -2 -2 -2 -2 -2 -2 -2 -3 -4 -4 -4 -4 -3 -2 -3 -2 -1 -0 0 0 1 1 1 1 1 0 0 1 1 1 1
2 1 0 -0 -2 -3 -4 -5 -5 -5 -5 -5 -4 -4 -5 -5 -5 -5 -4 -4 -4 -4 -4 -5 -6 -6 -6 -6 -6 -7 -7 -7 -7 -7 -7 -7 -7 -6 -5 -5 -5 -5 -5 -5 -5 -5 -5 -6 -6 -5 -5 -4 -3 -3 -3 -3 -2 -2 -3 -3 -4 -5 -6 -6 -5 -5 -4 -3 -4 -3 -2 -1 -0 0 0 0 1 1 1 1 0 0 0 0 1
1 0 0 -1 -3 -5 -5 -5 -5 -5 -5 -5 -5 -5 -5 -5 -5 -5 -5 -5 -5 -5 -5 -6 -6 -6 -7 -7 -7 -7 -7 -7 -8 -8 -7 -7 -8 -7 -7 -6 -6 -6 -6 -6 -7 -7 -7 -7 -6 -6 -5 -5 -5 -4 -4 -4 -3 -3 -4 -5 -5 -6 -6 -6 -5 -5 -5 -5 -4 -3 -2 -1 -0 0 0 0 0 0 1 1 0 0 0 0 0
0 -0 -0 -2 -4 -6 -6 -6 -6 -5 -5 -5 -5 -6 -6 -5 -6 -6 -6 -6 -6 -6 -6 -6 -7 -7 -7 -7 -8 -8 -8 -8 -8 -8 -8 -8 -8 -8 -7 -7 -7 -7 -7 -7 -7 -7 -8 -7 -7 -6 -6 -6 -5 -5 -5 -4 -4 -4 -5 -5 -6 -6 -6 -5 -5 -4 -4 -5 -4 -3 -2 -2 -1 -0 -0 -1 -0 -0 -0 0 0 0 0 0 0
-1 -1 -1 -3 -5 -6 -6 -6 -6 -6 -6 -6 -6 -6 -6 -6 -6 -6 -6 -7 -7 -7 -7 -7 -7 -7 -8 -8 -8 -9 -9 -9 -9 -9 -9 -9 -9 -8 -8 -7 -7 -6 -7 -7 -7 -7 -7 -7 -6 -6 -6 -6 -6 -6 -5 -5 -5 -5 -5 -5 -5 -5 -5 -5 -5 -4 -4 -4 -4 -3 -2 -2 -1 -1 -1 -1 -0 -0 -0 -0 0 0 0 0 0
-1 -1 -2 -4 -6 -7 -6 -6 -6 -6 -7 -7 -7 -7 -7 -6 -6 -7 -7 -7 -8 -8 -8 -8 -8 -8 -8 -9 -9 -9 -10 -10 -10 -10 -10 -10 -9 -9 -9 -9 -8 -7 -7 -7 -7 -6 -6 -6 -6 -6 -6 -7 -7 -6 -6 -6 -6 -6 -6 -5 -5 -5 -4 -4 -4 -4 -3 -3 -3 -3 -2 -2 -1 -1 -1 -1 -0 -0 -0 0 0 0 0 0 0
-2 -2 -2 -4 -6 -7 -7 -7 -7 -7 -7 -7 -7 -7 -7 -7 -7 -7 -8 -8 -9 -9 -9 -9 -9 -9 -9 -10 -10 -10 -10 -11 -11 -11 -11 -11 -10 -10 -10 -10 -10 -9 -9 -8 -8 -7 -7 -7 -7 -7 -7 -7 -7 -7 -7 -7 -7 -6 -6 -5 -5 -4 -4 -4 -4 -4 -3 -3 -3 -3 -3 -2 -2 -1 -1 -1 -1 -0 -0 0 0 1 1 1 1
Height
857 857 857 856 856 855 855 854 853 853 852 851 850 849 848 847 845 844 843 841 840 839 838 836 835 834 832 831 829 828 826 825 824 823 822 821 819 818 817 815 813 812 810 809 807 806 804 803 801 800 798 797 795 794 792 791 790 788 787 786 785 784 783 781 778 774 771 770 769 768 768 768 767 766 765 765 765 766 767 768 769 770 771 771 772
856 856 856 856 856 855 855 854 853 853 852 851 850 849 848 847 845 844 843 841 840 839 837 836 835 834 832 831 830 828 826 825 824 822 821 820 819 817 816 814 812 811 809 807 806 804 803 801 800 798 797 795 794 792 791 790 788 787 785 784 783 782 781 780 777 775 771 768 767 767 766 766 765 764 764 763 763 764 765 766 767 769 770 770 771
856 856 856 856 856 855 855 854 853 853 852 851 850 849 847 846 845 844 843 841 840 839 837 836 835 833 832 831 829 828 826 825 823 822 821 819 818 816 815 813 811 810 808 806 805 803 802 800 798 797 795 793 792 791 790 789 787 786 784 782 781 779 779 778 776 774 771 767 765 765 764 763 763 762 762 761 761 762 763 764 765 766 768 769 769
856 856 856 856 855 855 854 854 853 852 851 850 849 848 847 846 845 844 842 841 840 839 837 836 835 833 832 830 829 828 826 825 823 822 820 819 817 816 814 812 811 809 807 805 804 802 800 799 797 795 794 792 790 789 788 787 786 784 782 780 779 777 776 775 774 773 771 767 763 763 763 762 760 760 760 759 759 760 761 762 763 764 766 767 768
856 855 855 855 855 855 854 853 853 851 851 850 848 847 846 845 844 843 842 841 839 838 837 836 834 833 831 830 829 827 826 824 823 821 819 818 816 815 813 812 810 808 806 804 803 801 799 798 796 794 792 791 789 787 786 785 784 782 781 779 777 776 774 773 772 770 769 767 763 760 760 760 759 758 758 758 758 758 758 759 761 762 763 765 767
855 855 855 855 854 854 853 852 852 850 850 848 847 847 845 844 843 842 841 840 839 837 836 835 834 832 831 829 828 827 825 824 822 820 819 817 815 814 812 811 809 807 805 803 801 800 798 796 794 793 791 789 788 786 785 783 782 780 779 777 775 774 772 770 769 768 766 765 762 758 757 758 757 756 756 756 756 756 756 757 759 760 760 762 764
854 854 854 854 854 853 852 851 851 850 849 848 847 846 844 844 842 841 840 839 838 836 835 834 833 831 830 829 827 826 824 823 821 819 818 816 814 813 811 809 808 806 804 802 800 798 797 795 793 791 790 788 786 785 783 782 780 779 777 775 773 772 770 768 767 766 764 762 760 757 755 755 755 754 754 754 754 754 754 755 756 758 759 760 761
853 853 853 853 853 852 851 850 850 849 848 847 846 845 844 843 841 840 839 838 836 835 834 832 831 830 829 827 826 824 823 821 820 818 816 815 813 811 810 808 806 804 803 801 799 797 795 793 791 790 788 786 785 784 782 780 778 777 775 774 772 770 768 767 765 764 762 760 758 755 753 752 752 752 752 752 752 751 751 752 753 754 756 758 759
852 852 852 852 852 851 850 849 849 848 847 846 845 844 843 841 840 839 838 836 835 834 832 831 829 828 826 825 824 823 821 819 818 816 814 813 811 810 808 806 804 802 801 799 797 795 793 791 789 788 786 784 783 782 780 779 777 775 774 772 771 769 767 765 763 762 760 759 756 754 751 749 749 750 750 749 749 748 749 750 750 751 753 756 757
852 852 851 851 850 850 849 848 848 847 846 845 844 843 841 840 839 837 836 835 833 832 831 829 827 826 824 823 822 820 819 817 816 814 812 811 809 807 806 804 803 801 798 796 795 793 791 790 787 786 784 782 780 779 777 776 775 773 772 771 769 767 765 763 761 760 758 757 755 752 749 747 747 748 748 747 746 746 746 747 748 749 752 754 755
851 851 851 850 849 849 848 847 847 846 845 844 842 841 840 838 837 836 834 832 831 830 828 827 825 824 822 820 819 817 816 815 813 812 810 808 806 805 803 802 800 799 797 794 792 790 789 788 786 784 782 779 777 776 774 773 772 770 769 768 767 766 764 761 759 758 756 754 752 751 748 746 745 745 745 744 744 744 744 744 745 747 749 750 751
850 850 850 849 848 847 847 846 845 844 843 842 840 839 838 837 835 833 831 830 829 827 826 824 822 821 819 818 816 814 813 812 810 809 807 806 804 802 800 799 797 796 794 792 790 788 786 785 783 782 780 777 775 773 771 770 769 767 765 763 762 762 761 759 757 756 754 752 750 748 747 745 742 741 742 742 742 742 741 741 741 742 743 744 744
850 849 848 848 847 846 846 845 844 843 841 840 839 837 836 834 833 831 828 827 826 825 823 821 819 818 816 814 813 811 810 809 807 806 804 803 801 799 797 796 794 793 791 790 788 786 784 782 781 779 778 775 773 771 769 767 766 763 761 759 758 757 756 756 754 753 752 750 748 745 744 742 740 738 738 739 739 739 738 738 737 738 739 739 738
849 848 847 847 846 845 844 843 842 841 840 838 837 835 834 832 830 828 826 825 824 822 820 818 817 815 813 811 810 808 807 806 804 803 801 800 798 796 794 792 791 790 788 787 785 783 782 780 778 776 775 773 771 768 766 764 762 760 758 755 754 752 752 751 750 749 748 747 745 742 740 739 737 735 735 736 736 735 734 734 733 733 734 735 736
847 847 846 845 844 843 843 842 840 839 837 836 834 833 831 829 827 825 824 822 821 819 817 816 814 812 811 809 807 805 804 803 801 800 798 796 794 792 791 789 788 786 785 784 782 780 779 777 776 774 772 770 768 766 764 762 760 757 755 752 751 749 748 747 746 745 744 742 741 738 736 735 733 732 731 731 731 731 730 729 729 729 730 733 735
846 846 845 844 843 842 841 840 838 837 835 833 832 830 828 827 825 824 822 820 818 817 814 813 810 809 807 806 804 802 801 799 798 796 794 793 791 789 787 785 784 782 781 780 779 777 776 774 773 771 769 767 766 764 762 760 757 755 753 750 748 746 744 743 743 741 740 738 736 735 733 731 730 728 728 727 727 725 725 725 725 727 728 730 732
845 844 843 842 841 840 839 837 836 835 833 832 830 828 827 825 824 822 820 818 816 813 811 810 808 806 804 803 801 799 797 795 794 791 790 788 786 785 783 781 780 778 777 776 775 774 772 771 770 768 766 765 763 761 759 757 755 753 750 748 746 743 740 739 738 737 735 733 732 730 728 727 725 724 724 724 723 722 721 720 720 721 724 726 728
843 842 841 840 839 838 838 836 835 834 832 831 829 827 826 824 822 820 818 815 813 811 809 807 805 804 802 800 798 795 793 791 790 787 785 784 782 780 778 777 776 774 773 772 771 770 769 768 767 765 763 762 760 758 757 755 752 750 748 745 743 740 737 735 734 732 730 729 727 725 724 722 721 720 719 720 719 718 717 715 714 716 719 720 722
841 841 840 839 839 838 837 835 834 832 831 829 827 825 824 822 820 818 816 814 811 809 806 804 802 801 799 797 795 792 789 787 786 784 782 780 778 776 774 773 771 770 769 768 767 766 765 764 763 762 761 759 758 756 754 752 750 747 745 743 740 737 735 733 731 729 726 724 723 721 719 718 717 716 715 715 716 715 713 712 712 712 713 715 718
841 840 840 839 838 837 835 833 832 830 828 827 825 824 822 820 819 817 814 812 810 807 805 802 800 798 796 794 792 789 786 784 782 781 779 777 774 772 770 768 766 765 764 764 763 762 761 760 759 759 758 756 754 753 751 749 747 745 742 740 737 734 732 731 729 727 725 722 719 717 716 714 713 712 711 711 712 712 711 711 711 710 710 711 714
841 839 838 837 836 835 833 832 830 829 827 826 824 823 822 820 818 816 813 811 809 806 803 801 798 795 793 791 788 786 784 781 779 777 775 773 771 768 766 764 762 762 761 760 759 758 756 756 755 755 754 753 751 749 747 745 744 742 739 737 734 731 730 728 726 724 722 719 717 714 712 710 709 708 708 708 708 709 709 709 709 709 709 708 709
839 838 837 836 835 834 833 831 830 828 827 825 824 822 821 819 817 815 812 810 807 805 802 799 796 793 790 788 786 783 781 779 776 774 772 770 767 765 762 760 759 759 758 756 756 754 753 751 751 750 750 749 747 746 744 742 740 738 736 734 731 729 727 725 723 721 719 717 714 712 709 708 706 705 705 705 705 706 706 706 706 707 708 707 706
838 838 837 836 835 833 832 831 829 827 826 824 823 822 820 818 816 814 811 809 806 803 800 797 794 790 787 785 782 780 778 776 773 771 769 766 764 762 759 757 756 756 755 753 752 750 749 747 747 747 746 745 744 742 740 738 737 735 733 731 728 726 724 722 720 719 716 714 712 709 707 705 704 703 703 702 703 703 704 704 704 705 706 706 706
838 838 837 835 834 832 831 830 828 827 825 824 822 821 819 817 814 812 810 808 805 801 798 795 792 789 785 782 779 777 775 772 771 769 766 764 761 759 757 755 753 753 752 750 749 747 745 744 743 743 743 741 740 738 736 735 734 732 730 729 726 724 721 719 718 716 714 712 710 707 705 703 702 701 701 700 700 701 702 703 703 704 704 705 705
838 837 836 834 832 831 830 829 827 826 825 823 822 820 817 816 813 811 809 806 804 801 797 794 791 788 784 781 777 774 772 769 767 765 763 761 759 756 754 752 751 750 749 747 745 743 741 740 740 740 739 738 736 735 733 732 731 730 728 726 724 722 719 717 716 714 712 710 708 705 703 701 700 699 699 698 699 699 700 701 702 703 703 703 704
837 836 834 833 832 830 829 828 827 826 824 822 821 819 817 815 812 810 807 805 803 800 797 794 790 787 783 780 776 772 769 767 764 762 760 758 756 754 752 750 748 747 745 743 742 740 738 737 737 737 736 735 733 732 731 730 729 727 726 724 722 720 718 716 714 712 710 708 706 704 702 700 699 698 697 697 697 697 698 699 700 701 701 701 703
836 835 833 832 831 830 829 828 826 825 823 821 819 818 816 814 812 809 806 804 802 800 798 794 790 787 783 779 775 772 769 765 762 760 757 755 753 752 750 747 745 743 741 740 738 736 735 734 733 733 733 732 730 729 728 727 726 725 724 723 721 719 717 714 712 710 708 706 704 702 700 698 697 696 695 695 695 695 696 698 699 699 700 700 702
835 834 833 832 831 830 829 827 825 824 822 820 818 817 815 813 811 809 807 805 802 799 797 794 791 787 784 779 774 771 768 765 763 760 758 755 751 749 746 744 742 741 739 737 735 733 732 730 730 730 729 728 727 727 726 725 724 723 722 721 719 718 716 713 711 709 707 705 703 701 698 697 696 695 694 694 694 694 695 697 697 698 698 699 700
835 834 833 832 831 830 828 826 825 823 821 820 818 817 815 813 811 809 807 805 803 800 797 793 790 787 784 780 776 772 768 766 763 761 757 753 749 746 743 740 738 737 735 734 733 731 728 727 726 726 725 724 724 724 723 723 722 721 720 719 718 716 714 712 710 708 706 704 702 700 698 696 695 695 694 694 694 694 695 696 696 697 697 697 697
835 834 833 832 831 829 827 826 824 822 821 819 817 816 814 813 811 809 806 804 802 800 796 793 790 786 782 779 777 775 772 768 763 758 753 749 745 742 739 737 734 732 730 730 729 727 725 723 722 722 722 721 721 720 720 720 719 719 718 717 716 715 713 711 709 707 705 703 701 700 698 697 696 695 694 694 694 695 695 695 696 696 696 696 696
835 834 833 832 830 828 827 825 823 822 820 818 816 814 812 811 809 808 805 802 800 797 795 792 788 785 781 777 774 772 769 764 759 754 750 746 742 739 736 733 730 728 726 725 724 722 721 720 719 718 718 718 717 717 717 717 717 716 716 715 715 714 713 711 709 707 704 702 700 699 698 697 696 695 695 695 695 695 695 695 696 696 696 695 695
835 834 832 831 830 828 827 825 823 821 819 817 815 813 810 808 806 804 802 800 798 795 792 789 785 782 779 776 772 768 763 759 756 752 748 744 740 737 733 730 728 725 723 722 721 719 717 716 715 714 715 714 714 714 714 714 714 714 714 714 714 713 712 710 708 706 704 702 700 698 698 697 696 696 695 695 695 695 695 695 696 695 695 694 694
834 833 832 831 829 828 826 824 823 821 819 817 815 812 810 807 804 801 798 797 796 793 791 787 784 780 777 774 771 767 762 758 754 750 746 742 739 735 731 728 726 723 721 719 719 717 715 713 712 710 711 711 710 710 711 711 711 711 712 712 712 712 711 710 708 706 704 702 700 698 697 697 696 696 695 695 695 696 696 696 695 695 694 694 694
834 833 832 830 829 827 826 824 823 821 819 817 814 812 810 807 804 800 796 793 791 789 788 786 783 780 776 773 771 767 762 758 754 750 746 742 738 734 730 725 723 722 720 717 716 715 713 712 710 708 707 707 707 707 708 708 709 709 710 710 711 710 710 709 707 706 704 701 699 698 696 696 696 696 695 695 695 695 696 695 695 695 694 693 693
834 833 832 830 829 827 825 824 822 820 818 816 814 812 810 807 805 802 798 794 790 787 785 783 781 779 776 772 769 766 762 757 753 749 745 741 737 733 728 724 721 720 718 717 715 713 711 709 708 707 705 704 704 704 705 705 707 707 707 708 709 709 709 708 707 705 703 701 699 697 696 696 696 696 695 695 695 695 695 695 695 695 694 693 692
834 833 832 830 829 827 825 824 822 820 818 816 814 812 810 807 805 802 799 797 793 789 785 782 779 777 775 772 768 764 760 756 752 748 744 741 737 733 729 725 721 718 716 715 713 710 708 707 706 706 705 703 701 701 702 703 705 705 706 707 708 708 708 707 706 705 703 701 699 698 697 696 696 695 695 695 695 694 694 695 695 695 694 694 693
834 833 831 830 829 827 825 824 822 820 818 816 814 812 810 808 805 803 800 797 794 791 788 784 779 775 772 769 766 763 759 755 751 747 743 740 736 732 729 726 722 718 715 712 710 708 706 705 704 704 703 702 700 699 701 703 704 704 705 706 707 708 708 707 706 705 703 701 700 698 697 696 696 695 695 694 694 694 694 694 694 694 695 695 694
834 832 831 830 828 827 825 823 821 820 818 816 814 812 810 808 806 803 801 798 796 793 790 787 783 778 773 769 765 761 756 751 747 743 739 736 734 731 728 724 721 717 714 711 709 707 704 703 702 701 701 700 699 700 703 704 704 705 706 707 707 708 708 707 706 705 704 702 700 699 698 697 696 696 695 695 694 694 693 693 694 694 695 695 694
833 832 831 830 828 826 825 823 821 819 818 816 814 812 810 808 806 804 802 800 797 795 792 789 786 782 778 773 767 762 756 751 746 742 738 735 732 730 726 723 719 716 712 710 708 706 703 702 700 699 699 698 698 700 703 704 704 705 706 707 707 708 708 707 707 705 704 703 701 700 699 698 697 696 696 695 695 694 693 693 693 694 695 695 695
833 832 831 829 828 827 825 823 822 820 818 816 815 813 811 809 807 805 804 802 799 797 795 791 788 785 781 777 772 766 761 755 750 746 741 736 732 728 724 720 717 713 710 708 706 704 702 701 699 698 699 700 700 701 703 704 705 706 708 708 708 709 709 709 708 706 705 704 703 701 700 699 698 697 697 696 695 694 694 693 693 694 694 695 695
833 832 830 829 828 826 825 823 822 820 818 817 815 813 812 810 809 807 805 803 801 799 796 793 791 787 783 780 775 770 765 759 754 749 744 739 733 728 722 718 714 711 708 705 703 702 701 700 698 699 701 702 702 703 704 706 707 708 709 710 710 710 710 710 709 708 706 705 704 703 701 700 699 698 698 697 696 695 694 694 694 694 695 695 696
833 831 830 829 828 826 825 823 822 820 818 817 816 815 813 812 810 809 807 805 803 800 797 795 792 788 785 781 776 771 766 761 757 752 747 741 735 728 722 716 712 708 705 703 702 700 699 699 699 700 702 704 705 705 706 708 709 711 712 712 712 712 712 711 710 709 708 707 705 704 703 701 700 699 698 698 697 696 695 695 694 694 695 695 696
833 831 830 829 828 826 825 823 821 820 819 818 817 816 815 813 812 810 808 806 804 802 799 796 793 790 786 781 776 771 767 763 759 755 750 744 737 730 724 717 711 707 704 702 701 700 699 700 701 701 703 706 707 708 710 712 713 713 714 714 714 713 713 712 711 710 709 708 706 705 704 702 701 700 699 698 697 697 696 696 695 695 695 695 696
832 831 830 829 827 826 824 823 822 821 820 820 819 817 816 814 813 811 810 808 806 803 801 799 796 792 787 783 778 773 769 766 762 758 753 747 741 735 729 722 715 710 706 703 702 702 704 705 705 705 707 710 712 712 714 715 716 716 716 716 716 715 714 713 712 711 710 709 707 706 704 703 702 701 700 699 698 698 697 696 696 695 695 695 696
832 831 830 828 827 826 824 823 823 822 822 821 820 818 817 815 814 813 811 809 807 805 803 801 798 795 791 787 783 778 774 770 767 762 758 752 746 741 735 729 723 719 715 712 710 711 713 713 712 711 714 716 716 716 717 718 718 719 719 719 718 717 716 715 714 713 712 710 708 707 705 704 703 702 701 700 699 698 698 697 696 696 695 695 696
832 831 830 828 827 826 825 825 825 824 823 822 821 819 818 817 816 815 813 811 809 807 805 803 800 798 795 791 787 782 779 775 771 767 763 758 752 747 742 737 732 729 726 724 722 721 721 721 720 720 720 721 720 720 721 721 722 722 722 721 720 719 718 717 715 714 712 711 709 708 706 705 703 702 702 701 700 699 698 698 697 696 696 696 696
832 831 830 829 828 827 827 826 825 825 824 823 822 821 820 818 817 816 814 813 811 809 807 805 802 800 797 794 791 787 783 780 776 772 768 764 759 754 749 744 740 737 734 732 731 730 729 728 727 727 726 726 726 725 725 725 725 725 724 723 722 721 720 718 716 715 713 712 710 709 708 706 704 703 702 701 700 700 699 698 698 697 696 696 696
832 831 830 829 828 828 828 827 827 826 825 824 823 822 821 820 819 818 816 814 812 810 808 807 805 802 800 797 794 791 788 784 780 776 773 769 765 761 756 751 748 745 742 740 739 738 737 735 734 733 732 731 731 730 729 729 728 728 727 726 724 723 722 720 718 716 715 713 712 710 709 707 706 704 703 702 701 700 700 699 698 697 697 696 696
832 831 830 830 829 829 829 828 828 827 826 825 825 824 823 822 821 819 818 816 814 812 810 809 806 804 802 800 797 794 791 787 783 780 776 773 770 767 763 759 755 752 750 748 747 745 743 741 739 738 737 737 736 735 734 733 732 731 730 728 726 725 723 721 719 718 716 714 713 711 710 708 707 706 704 703 702 701 701 700 699 698 697 697 696
832 832 831 830 830 830 830 830 829 828 828 827 826 825 824 823 822 821 819 818 816 814 812 811 808 806 804 801 799 796 793 790 787 784 780 776 774 771 768 765 761 758 756 754 752 750 748 746 745 743 742 741 740 739 738 737 735 734 733 731 729 727 724 722 721 719 717 715 714 713 711 710 709 707 706 705 703 702 701 700 699 698 697 697 696
832 832 831 831 830 830 830 830 830 829 829 828 827 827 826 825 823 822 821 819 817 816 814 812 810 808 806 804 801 799 796 793 791 787 783 780 778 775 771 769 766 763 760 758 756 754 752 750 749 748 747 746 745 743 742 740 739 737 736 734 731 728 726 724 722 720 719 717 715 714 713 712 710 709 708 706 704 703 702 701 699 699 698 697 696
Wind_Speed
9 7 6 7 9 9 7 8 10 10 9 9 10 11 12 13 14 15 16 17 17 16 16 15 16 16 17 17 18 17 15 13 13 15 16 16 16 16 16 16 16 16 17 19 20 20 21 21 21 21 20 20 19 18 17 16 16 16 17 18 19 19 18 17 12 12 20 24 21 21 23 21 19 19 21 22 19 16 18 19 18 17 18 17 17
10 8 6 7 8 6 7 9 10 10 9 9 10 12 13 14 14 14 16 17 17 16 16 16 16 16 16 17 17 15 13 13 13 15 16 16 17 18 18 19 18 18 18 18 19 19 20 20 21 21 21 20 19 17 16 16 16 17 18 18 19 20 18 17 15 12 16 23 22 20 21 21 19 20 20 21 20 19 20 21 21 20 20 19 19
10 9 7 8 7 7 8 9 10 10 10 10 11 12 14 14 14 14 16 16 15 14 15 15 16 15 16 16 16 14 13 14 15 15 15 15 17 19 20 20 19 19 18 18 18 18 19 20 20 21 20 18 18 17 16 16 16 17 19 19 19 21 20 17 17 14 13 21 23 19 19 21 21 20 21 21 22 20 21 24 24 23 22 21 20
11 9 9 9 8 8 9 9 9 9 9 10 12 13 14 14 13 14 15 14 13 13 14 15 15 15 15 16 15 14 14 15 16 16 15 15 17 19 20 20 19 18 18 18 18 18 19 20 20 20 19 17 18 19 17 17 18 18 20 20 20 21 20 18 18 16 14 18 23 21 18 21 22 20 19 20 20 20 22 25 26 26 25 24 22
12 10 10 10 9 9 10 9 9 9 8 9 10 12 13 13 13 13 13 14 13 12 13 14 14 14 14 15 15 14 15 16 17 17 15 15 16 19 20 20 19 18 18 18 18 18 19 19 19 20 19 18 18 19 19 19 20 20 21 21 21 20 20 20 19 18 17 17 22 24 20 19 20 20 19 19 18 18 21 24 27 28 27 25 23
12 12 12 11 10 10 10 10 9 9 8 8 9 11 13 13 13 13 13 13 14 13 13 13 14 14 14 15 15 15 16 17 17 17 16 16 17 18 19 19 19 19 19 19 18 18 18 18 19 19 19 18 17 18 20 20 21 22 22 21 21 21 21 22 20 20 19 18 21 24 21 18 19 20 20 20 20 20 20 21 23 27 28 26 24
13 13 13 11 11 11 11 11 11 10 10 9 10 11 13 13 14 13 13 14 14 15 15 15 15 15 16 16 16 16 17 17 17 17 17 18 18 18 19 19 20 20 20 20 19 18 19 19 18 19 18 17 17 18 20 20 20 21 21 20 20 20 21 22 22 21 21 20 19 21 20 18 18 19 19 19 21 22 21 20 19 22 26 27 27
14 14 13 12 12 12 12 12 12 12 12 12 12 13 14 14 14 14 14 15 16 16 16 16 17 17 17 17 16 17 17 17 17 18 18 18 19 19 19 20 21 21 21 21 21 19 19 20 19 19 19 17 16 16 16 18 19 20 20 19 19 19 20 21 21 20 20 19 18 19 20 18 17 18 18 16 18 19 22 23 22 24 26 26 27
16 15 14 13 13 13 13 13 14 14 14 14 15 16 16 16 15 15 16 17 17 17 17 17 18 19 19 18 17 17 18 18 19 19 20 20 19 20 20 20 21 22 22 22 21 21 20 20 19 20 19 17 16 15 14 15 16 18 19 20 20 20 19 19 19 18 18 17 16 17 18 17 16 15 14 16 20 21 23 24 22 24 26 23 22
16 16 15 14 13 14 14 15 15 15 16 17 18 18 18 18 17 18 18 19 19 19 19 19 19 20 20 20 20 19 19 19 20 20 21 21 21 21 21 21 21 22 23 22 22 22 21 20 20 20 20 19 18 17 15 14 14 16 18 20 21 21 21 20 18 17 17 16 15 15 15 15 15 15 14 18 23 23 24 25 21 20 21 18 15
17 16 16 15 15 16 16 16 17 17 18 19 20 21 21 20 20 20 21 21 21 20 20 21 21 20 20 20 21 22 21 21 20 21 23 23 23 22 22 23 22 22 23 24 23 23 23 21 21 21 21 21 20 19 17 15 15 17 19 20 21 21 21 20 19 18 18 17 16 15 15 16 18 18 17 19 21 22 25 26 24 22 22 17 12
18 17 17 17 17 18 18 18 19 19 21 22 22 23 23 23 23 24 24 24 23 22 22 23 23 22 22 22 22 22 23 23 22 22 23 24 24 24 24 24 23 23 24 25 25 25 24 23 22 22 22 21 20 21 19 16 17 20 22 21 21 20 20 19 19 19 18 18 18 18 18 19 21 21 19 18 19 22 24 26 27 27 26 22 19
19 19 19 19 20 20 20 20 21 22 23 24 25 25 25 26 26 27 28 27 25 25 25 26 25 25 24 24 25 24 23 24 25 24 24 25 25 25 25 25 24 24 25 25 26 26 26 24 23 23 23 22 21 21 20 17 18 20 23 23 22 21 20 19 20 20 20 20 20 22 23 22 22 24 22 19 19 20 22 25 28 29 28 28 28
20 21 21 22 22 22 22 23 23 24 25 26 27 27 27 28 28 29 31 30 29 29 29 29 28 27 27 27 27 26 26 26 26 27 26 25 26 27 27 26 25 25 25 26 27 27 27 25 24 23 23 22 22 22 20 19 19 21 24 25 22 22 22 21 21 22 22 22 22 25 27 26 25 27 27 24 23 23 23 25 29 31 31 28 25
22 23 24 24 25 25 25 25 26 26 27 28 29 29 29 30 31 32 33 33 33 33 32 33 32 30 29 29 29 29 29 29 29 30 30 28 27 28 29 28 26 26 25 26 27 28 27 26 25 24 24 23 22 21 20 20 20 21 22 22 20 20 21 22 22 22 23 23 23 25 27 27 28 28 29 28 28 28 27 29 32 33 30 23 19
23 25 26 27 27 27 27 28 28 29 30 31 32 32 32 33 33 34 35 35 35 35 35 36 36 34 32 31 30 31 32 32 32 32 32 31 28 28 30 30 28 27 26 26 26 28 28 27 26 25 24 24 23 21 20 19 19 18 19 20 20 20 23 24 24 23 23 22 23 24 25 27 28 28 28 28 29 30 28 28 29 27 25 19 17
25 27 28 29 29 29 30 31 31 31 32 33 34 34 34 34 35 36 36 36 36 36 36 36 36 35 33 31 31 32 32 32 31 30 29 28 28 29 31 31 29 28 28 27 27 28 28 28 27 25 25 25 24 22 20 19 18 18 20 22 22 24 27 27 26 25 24 23 23 23 23 25 26 28 28 26 26 26 22 22 26 27 24 15 12
26 28 29 29 30 30 31 31 31 31 32 33 34 35 35 35 37 36 35 35 35 34 33 33 33 32 32 31 30 31 30 29 27 26 24 24 26 28 31 32 31 29 29 28 27 29 29 28 27 26 25 25 24 22 21 19 19 21 22 22 22 25 29 28 26 26 25 24 25 25 24 25 25 26 28 27 23 21 20 26 28 28 25 17 13
26 27 28 29 30 30 30 30 29 29 29 29 29 30 31 31 31 29 28 27 28 27 27 28 28 28 28 28 28 28 29 28 24 24 24 24 26 27 29 32 32 30 30 29 28 29 30 29 27 26 26 25 24 23 22 21 21 23 24 22 21 25 27 25 24 25 26 27 27 26 26 27 26 25 25 26 24 20 20 26 30 30 28 23 19
24 24 25 25 24 23 22 21 20 20 20 21 22 22 23 22 21 21 21 22 23 24 24 25 26 26 26 27 27 28 28 27 25 24 25 26 28 28 27 30 32 31 30 29 29 31 31 30 29 27 26 25 25 24 23 22 23 25 25 23 22 24 24 23 24 25 26 28 28 28 27 26 25 24 22 23 23 20 17 19 25 32 32 26 24
19 19 17 15 13 13 13 13 14 15 16 17 18 17 16 17 19 20 22 23 24 25 25 26 27 27 27 27 27 26 26 26 26 26 27 28 29 28 27 28 31 31 29 29 30 31 32 32 31 28 26 26 25 25 24 23 24 25 25 23 23 22 21 21 24 26 26 28 28 26 26 24 22 22 21 20 22 19 14 14 19 29 33 28 28
12 9 9 10 11 12 13 13 14 15 15 14 14 15 17 19 21 23 24 25 26 27 28 29 30 30 30 29 28 26 25 25 26 25 26 27 26 26 26 26 28 29 28 27 29 30 32 33 32 29 26 26 26 25 25 24 24 23 21 20 21 19 17 19 22 24 25 26 24 22 22 21 20 21 20 19 20 18 14 12 14 22 30 31 31
8 9 10 11 12 12 13 15 15 13 12 13 16 18 21 23 25 26 27 28 29 29 30 31 31 32 32 32 31 29 26 25 24 24 24 25 24 23 24 24 25 26 26 26 27 29 30 30 30 28 27 26 26 25 24 23 22 20 17 18 19 18 16 17 19 21 22 22 20 19 20 20 20 19 19 19 19 18 15 12 12 17 24 28 29
10 10 10 11 11 13 15 15 13 12 14 17 20 22 24 25 26 27 28 28 29 29 30 31 30 30 31 32 33 32 29 28 27 25 24 23 22 22 22 22 22 23 25 26 27 27 27 27 27 27 26 26 26 23 21 21 19 16 15 17 18 17 16 16 18 19 20 20 19 18 18 19 19 18 18 18 17 17 16 14 13 13 16 21 22
10 10 11 12 13 14 14 12 11 14 18 20 22 23 24 25 26 26 27 27 27 27 29 29 29 28 29 30 33 34 34 33 32 30 27 25 23 21 21 21 21 22 24 26 25 25 24 23 24 24 25 25 23 20 18 17 15 13 14 16 18 17 16 16 17 17 18 19 18 17 18 19 18 16 15 16 15 15 16 16 15 12 11 14 17
11 12 13 13 13 12 12 13 14 17 20 21 21 22 22 23 24 25 26 26 25 26 27 28 28 28 28 29 31 33 35 35 35 35 33 32 29 25 22 22 22 23 25 26 25 23 21 21 21 22 22 21 20 17 16 15 13 12 14 16 17 17 17 16 17 17 17 18 18 17 17 17 16 14 12 12 12 13 15 16 16 13 11 12 14
12 12 12 12 11 12 14 16 18 19 20 20 20 20 21 22 24 25 26 26 26 25 25 26 26 26 27 29 30 30 31 33 34 35 36 37 36 32 29 27 26 25 25 25 25 23 21 20 20 20 19 18 16 15 14 13 12 13 14 15 16 17 17 16 15 16 16 16 16 16 16 15 13 12 9 9 10 11 14 16 16 14 13 13 14
11 11 10 11 12 14 16 17 18 18 18 18 19 20 21 22 23 24 25 25 25 25 24 23 24 24 25 27 28 28 28 29 31 33 35 36 36 35 34 33 33 32 30 28 26 24 22 21 19 18 17 15 14 13 12 11 11 12 13 15 16 16 17 17 15 14 15 15 16 16 15 13 12 10 8 7 8 8 11 14 15 15 15 16 16
10 9 10 12 14 16 16 16 17 18 18 19 20 20 21 22 22 23 25 25 25 25 25 24 25 26 25 25 24 24 26 28 31 34 35 34 33 32 31 32 32 32 32 31 28 25 23 22 20 18 16 14 13 12 11 10 11 11 11 13 15 15 17 18 17 16 16 16 16 15 14 12 10 8 6 5 6 6 7 10 11 13 15 17 16
10 10 12 14 15 15 16 16 17 18 19 20 20 21 21 22 22 23 25 26 26 27 28 29 30 30 30 28 24 22 24 29 34 37 37 35 34 32 31 30 29 27 27 27 26 24 24 22 21 19 15 13 13 12 10 9 10 10 10 12 13 14 16 17 17 17 17 16 15 14 12 9 6 5 5 4 4 5 5 7 9 10 12 13 13
11 12 13 14 14 15 16 17 18 19 20 20 21 21 21 22 22 23 25 26 28 29 30 32 33 33 34 34 31 29 31 36 39 39 38 37 36 34 34 33 29 26 25 24 23 23 23 22 21 19 16 13 13 13 11 9 9 9 9 10 11 13 15 16 17 18 19 17 15 13 11 8 5 4 4 4 4 4 4 5 8 9 10 12 12
11 12 13 13 14 15 16 18 18 19 20 21 21 21 20 21 22 23 24 25 26 27 29 32 34 34 34 35 35 36 39 41 42 41 40 38 36 36 36 36 31 26 22 19 20 24 24 22 20 20 17 14 13 13 12 10 9 8 7 8 9 11 12 15 17 18 19 18 15 13 12 10 7 5 5 5 5 4 3 3 5 7 9 10 12
12 12 13 13 14 15 16 17 18 18 19 20 20 21 21 22 23 24 25 25 24 25 27 29 32 33 34 34 35 38 41 43 44 44 42 39 38 37 37 37 33 26 20 16 18 24 25 23 22 20 17 15 15 14 12 12 10 7 5 6 7 9 10 12 16 18 19 18 16 14 12 10 8 7 7 7 7 6 4 2 3 5 7 8 11
11 12 12 13 14 15 15 16 17 18 19 20 21 22 22 23 24 25 27 28 27 26 26 26 28 31 32 33 34 37 40 43 44 43 41 39 38 38 38 36 32 26 21 17 18 22 25 24 23 22 18 16 15 14 13 12 10 6 4 3 4 6 7 10 14 17 18 17 17 14 12 10 9 8 7 7 7 7 6 4 3 5 7 5 10
11 11 12 13 14 15 15 16 17 19 20 21 22 22 23 24 25 25 26 26 27 27 27 28 29 30 31 32 35 38 40 42 43 42 40 39 38 38 37 35 32 28 23 19 18 20 23 23 22 22 21 16 13 13 12 11 9 6 4 2 3 3 5 9 13 15 15 15 15 14 12 10 9 9 9 8 8 8 7 6 5 4 7 6 7
11 12 13 13 14 14 15 16 18 20 21 21 22 23 24 25 25 25 24 25 25 26 27 28 30 30 29 31 35 39 40 41 41 39 38 37 37 35 32 30 32 31 26 22 20 21 21 20 20 24 25 20 14 12 12 11 8 6 3 2 2 2 4 8 12 13 14 14 14 13 12 10 9 9 9 9 10 10 8 8 7 6 6 8 3
12 12 13 13 14 14 15 17 19 21 22 23 24 24 24 24 24 24 24 24 25 25 25 27 29 31 31 33 37 40 41 41 39 38 37 37 36 35 32 30 32 32 29 27 24 23 22 21 19 23 27 23 14 9 10 10 7 4 2 2 1 2 4 8 10 12 12 12 12 13 13 12 9 9 9 8 10 9 9 8 7 7 6 7 4
12 12 13 13 14 15 17 19 20 22 24 24 23 23 23 23 24 24 23 23 23 23 23 25 27 30 32 35 39 41 41 40 38 39 39 38 36 35 35 34 33 32 31 30 27 24 23 23 20 21 23 18 9 6 6 5 4 2 1 0 2 4 6 8 9 11 11 11 11 11 12 12 10 10 9 7 8 8 8 7 7 8 7 5 4
11 12 12 13 15 16 18 20 21 22 23 23 22 22 23 23 23 22 22 21 21 22 23 25 26 29 32 36 39 40 39 37 35 36 39 39 39 38 37 35 34 33 32 31 29 25 24 24 21 19 16 12 10 8 6 4 4 3 3 4 5 7 8 9 9 10 11 12 12 11 11 11 10 10 10 8 6 7 8 9 7 8 9 6 4
11 11 12 14 15 17 19 20 20 20 21 21 21 22 22 21 21 20 20 21 21 22 23 24 27 30 32 35 38 39 36 33 33 35 37 40 41 41 39 37 35 34 32 31 29 26 24 22 20 17 12 9 11 9 7 6 7 6 7 8 9 10 11 10 10 11 12 12 12 12 11 11 10 9 10 11 9 6 7 10 9 8 9 9 5
10 11 13 14 16 17 18 19 19 19 19 20 20 20 20 19 19 19 20 21 22 22 23 24 27 30 32 35 39 37 32 30 32 35 37 40 41 41 40 39 37 34 32 30 27 24 22 20 16 12 6 5 11 12 11 12 12 12 13 14 14 14 14 14 14 14 14 13 13 13 12 12 11 9 9 10 10 9 6 5 9 9 9 10 9
11 12 13 15 16 16 17 17 18 18 19 19 19 19 19 18 19 19 20 21 22 23 23 25 27 29 32 36 39 37 31 30 32 35 37 41 44 43 42 41 37 31 28 25 22 21 20 17 9 1 8 14 18 18 18 19 18 18 18 18 17 17 17 17 17 17 16 15 14 14 13 12 12 11 10 9 8 9 8 5 4 7 9 10 11
11 12 13 14 14 15 16 17 18 18 18 17 17 18 18 18 20 20 20 21 22 23 23 25 28 29 31 35 39 37 33 31 32 34 37 42 44 44 43 42 37 29 24 22 20 17 13 5 8 18 24 25 25 25 24 23 21 20 20 19 19 19 18 18 18 18 17 16 15 14 13 12 12 12 11 10 9 8 7 7 4 4 6 9 11
12 12 12 12 13 14 16 17 17 16 16 15 16 17 19 20 20 20 20 21 22 22 22 25 27 28 30 33 36 36 34 33 33 33 36 40 43 44 45 45 42 36 30 24 19 16 16 21 29 35 34 31 30 29 27 25 23 22 22 21 20 20 19 18 17 17 17 16 15 14 14 13 12 12 12 12 11 9 8 6 5 4 3 6 9
12 11 11 12 14 16 17 16 15 14 14 14 15 17 19 19 19 19 19 20 21 21 21 23 25 26 27 30 32 33 33 33 32 33 36 40 42 42 44 45 45 45 44 43 39 37 37 38 40 41 38 36 34 32 30 28 26 24 23 21 19 19 20 18 17 15 15 15 14 14 14 14 13 13 12 11 11 11 9 7 6 4 3 2 5
11 10 11 13 15 16 15 14 13 13 13 14 15 17 17 18 18 18 19 19 20 20 21 22 24 24 25 27 30 32 33 33 32 33 37 42 43 41 41 42 43 44 45 45 44 43 42 41 41 41 40 39 37 34 32 30 27 25 23 22 20 20 20 20 19 18 16 14 13 13 14 13 13 13 12 11 10 11 10 9 7 5 3 2 3
10 10 11 13 15 15 13 12 12 13 13 14 15 16 16 16 17 17 18 19 20 20 20 21 22 23 23 25 28 30 31 31 31 31 35 40 44 45 45 46 46 47 46 45 44 43 42 41 41 41 41 39 37 36 34 32 30 28 27 24 22 20 20 21 22 20 18 15 12 11 12 12 12 12 12 12 11 11 10 10 10 8 5 4 3
9 10 11 13 15 14 12 12 13 13 13 14 15 15 15 16 16 17 18 19 19 19 20 20 21 22 22 23 26 27 28 28 29 30 32 35 38 43 48 49 48 48 48 47 45 44 42 42 41 41 40 39 38 37 35 33 32 31 30 27 24 20 18 19 21 20 17 15 13 11 11 12 12 12 13 13 13 13 12 12 12 11 8 6 4
10 10 12 14 14 13 11 11 12 12 12 13 13 14 14 15 16 17 17 18 18 18 19 20 20 21 21 22 24 25 26 26 27 29 33 34 34 35 41 45 46 45 44 44 43 42 41 41 40 39 38 37 37 36 35 34 34 33 31 29 27 23 19 18 19 18 16 15 15 14 14 14 13 13 14 14 14 14 13 13 13 12 10 7 5
10 11 12 14 13 11 10 10 11 11 12 12 13 13 13 14 15 16 16 16 17 18 18 19 19 19 20 21 22 24 25 26 26 27 32 34 33 32 34 37 40 42 42 41 39 39 39 38 38 37 36 36 35 35 34 34 34 33 32 31 29 27 23 20 18 17 16 15 14 15 15 15 14 14 14 14 14 14 14 14 14 12 11 10 7
10 11 12 13 12 11 10 10 10 11 12 12 12 12 13 13 14 14 15 15 16 17 17 17 18 18 18 19 20 21 23 24 24 26 30 31 30 31 32 33 34 36 38 38 37 37 37 36 36 36 35 35 34 34 34 33 32 32 32 30 30 30 28 24 19 16 15 14 14 14 14 13 13 14 14 14 14 14 14 15 15 13 11 11 9
Wind_Direction
269 281 294 312 320 324 326 320 316 315 316 324 334 339 338 335 335 336 333 331 331 334 334 333 336 338 339 340 342 343 343 347 354 355 353 353 353 351 347 343 339 338 337 336 338 342 342 341 340 340 340 337 332 328 324 323 323 321 319 316 311 310 309 304 296 295 297 295 291 292 297 299 294 286 279 276 268 249 236 229 223 219 212 207 207
262 270 284 305 308 305 308 311 312 310 311 321 330 332 331 331 332 333 334 332 330 332 331 331 334 336 336 338 342 346 350 353 352 348 345 345 348 349 346 343 340 338 338 338 339 343 343 341 340 340 339 336 331 326 321 319 320 317 316 316 313 310 309 305 299 299 301 299 296 293 296 295 288 283 279 272 264 248 229 219 215 216 215 210 207
259 265 277 290 286 282 296 305 308 308 312 320 326 328 327 328 328 329 331 331 330 332 332 331 333 334 334 336 340 347 352 350 346 341 337 337 341 344 344 342 341 340 341 344 346 346 344 342 342 343 341 335 330 326 322 319 317 315 313 313 313 312 309 304 299 298 299 301 300 296 296 295 289 285 281 271 261 246 227 217 211 210 211 210 207
255 261 268 271 266 274 291 298 302 306 313 321 325 325 324 323 323 324 328 331 331 335 337 337 335 333 333 334 337 344 345 342 341 338 333 332 336 339 341 340 342 344 345 348 350 348 344 343 344 345 341 335 330 327 323 320 317 315 313 311 311 310 308 306 301 296 293 296 297 297 296 293 290 287 279 267 254 239 225 216 209 206 207 206 205
250 256 258 254 255 275 287 287 292 299 308 321 325 322 320 318 317 321 327 329 329 331 333 334 334 332 330 330 331 333 334 335 337 336 332 329 330 334 337 338 340 342 343 345 346 346 344 343 343 344 342 335 331 328 325 323 319 315 314 312 310 309 308 308 305 300 296 293 294 296 295 291 289 285 274 261 247 228 216 212 208 203 202 202 202
248 248 245 242 254 273 278 277 283 288 294 311 321 318 316 314 314 318 323 324 323 323 322 323 325 325 323 323 322 321 324 329 331 331 329 325 323 326 331 333 335 336 337 339 341 342 342 342 342 342 340 336 333 330 326 323 318 316 315 314 312 311 309 307 307 306 303 300 297 295 295 292 287 282 274 258 239 218 205 204 203 201 200 199 197
242 238 234 238 255 268 271 274 279 281 287 300 308 310 310 309 310 315 319 318 316 315 315 314 313 314 315 315 314 314 317 322 322 320 320 319 317 318 323 326 328 330 332 333 335 338 339 341 341 340 339 338 335 329 324 321 319 317 317 316 315 314 311 308 306 305 304 302 299 295 295 293 286 282 276 257 236 220 205 193 191 195 199 199 196
234 231 229 237 255 266 272 275 276 279 286 291 296 300 302 302 305 309 311 311 311 310 310 310 307 306 307 309 309 308 309 313 314 312 310 311 311 311 314 318 321 324 328 329 330 333 336 339 339 339 339 335 328 322 319 319 319 318 319 321 320 316 312 308 305 303 301 300 297 295 294 293 288 283 272 246 226 220 210 198 193 194 197 197 197
228 226 227 240 258 269 274 275 275 278 283 285 289 293 294 296 299 301 302 305 306 305 304 304 302 300 300 302 304 304 302 303 306 307 305 304 303 304 306 309 313 317 320 323 324 326 330 333 335 337 337 332 325 320 319 318 316 315 318 322 322 319 314 309 303 299 298 295 293 294 294 293 291 283 258 229 224 226 217 207 201 197 194 192 193
225 223 229 246 262 270 273 273 274 277 280 284 286 287 288 290 291 294 297 299 301 301 299 297 297 296 295 295 297 299 299 299 299 300 300 299 297 297 297 300 305 309 312 315 317 320 324 328 331 334 333 332 331 327 323 319 312 308 311 315 315 314 312 310 304 298 295 291 289 291 291 293 295 288 267 246 239 231 216 207 200 189 185 183 187
223 225 237 254 265 269 271 272 274 277 280 282 283 284 285 286 286 288 290 293 296 297 295 292 293 294 292 291 292 293 296 299 300 299 298 296 293 291 291 293 297 302 305 307 309 313 317 321 326 331 331 331 331 327 324 319 309 305 308 309 307 305 305 306 303 298 292 285 282 282 283 287 292 290 283 270 253 236 220 210 197 183 182 182 182
225 232 245 259 266 268 271 272 274 277 280 282 282 283 284 284 284 284 285 289 292 292 290 289 291 291 290 289 289 292 294 298 301 302 299 295 290 286 286 288 291 295 299 302 304 307 311 315 320 326 330 330 328 326 323 316 308 307 311 311 308 306 303 301 300 298 294 289 284 279 278 280 282 282 283 282 269 248 229 213 201 193 191 193 193
229 239 251 260 267 270 271 272 274 277 281 283 283 283 282 283 284 284 285 286 287 287 287 287 288 290 289 288 289 292 295 298 300 302 301 296 287 282 282 284 287 290 294 297 299 301 305 310 313 319 326 327 325 325 322 315 310 310 312 311 308 308 308 303 300 299 297 294 288 281 277 274 274 277 280 284 282 264 239 217 207 202 200 204 206
234 245 254 261 267 270 271 272 274 278 282 284 283 283 282 284 286 287 287 286 284 285 286 286 286 288 290 291 292 294 296 299 301 302 303 299 288 279 278 279 282 285 289 292 295 296 299 304 307 312 320 323 323 324 320 313 311 312 311 309 304 306 309 307 305 303 298 294 289 284 279 274 271 276 282 284 284 275 253 227 214 211 209 212 212
241 249 256 262 267 269 270 272 274 278 282 283 283 283 284 285 288 290 290 289 287 287 286 285 285 286 290 292 293 295 300 303 304 303 302 301 292 280 275 275 277 281 285 288 291 292 295 298 302 307 314 318 321 321 317 312 312 312 309 306 301 300 304 306 308 306 300 295 291 287 283 278 274 276 281 284 285 283 269 246 230 219 210 206 203
247 253 257 263 267 270 272 273 274 277 281 282 282 284 286 288 292 294 294 294 293 291 289 287 286 286 289 292 294 299 305 308 307 305 303 302 295 282 274 273 273 276 281 285 287 290 291 294 299 305 310 315 318 318 314 312 312 311 309 308 306 303 304 308 309 306 301 296 292 289 284 281 279 277 279 283 287 288 277 251 231 214 199 191 186
251 255 259 264 269 273 275 276 277 278 281 282 283 285 289 292 296 298 298 298 298 297 295 294 292 289 289 293 299 304 308 309 309 308 306 303 298 287 275 270 270 273 278 281 284 287 288 290 296 302 307 313 316 316 313 311 310 309 308 308 308 307 308 311 313 308 303 300 297 294 288 283 280 277 275 278 287 288 267 230 210 199 190 185 177
256 259 263 268 272 275 279 281 282 284 285 285 287 290 293 297 300 303 303 303 303 304 303 300 297 295 295 299 305 308 309 309 310 311 310 307 302 293 280 270 268 271 275 277 281 285 287 288 291 297 303 310 314 314 312 309 306 304 304 304 302 302 306 312 315 312 309 307 304 301 296 290 283 278 273 271 280 286 254 219 204 193 189 190 183
262 265 268 273 278 282 287 291 293 295 295 297 298 299 302 305 308 310 313 313 313 315 314 310 307 307 306 306 308 308 308 309 310 312 313 310 306 301 286 271 266 269 273 275 279 284 286 287 289 293 302 309 312 312 310 306 303 303 304 300 293 294 303 310 312 312 310 308 307 304 300 295 287 281 275 268 272 282 260 229 209 194 191 193 181
274 279 283 288 293 298 304 308 311 312 313 313 312 311 313 318 322 326 329 329 327 326 324 319 315 313 312 309 308 307 307 308 308 308 309 306 304 304 293 272 264 268 273 275 279 283 286 288 288 291 301 309 311 311 308 304 303 304 303 297 289 292 303 308 308 309 307 304 303 302 300 296 286 280 277 268 266 274 270 245 220 203 197 191 180
296 302 306 313 324 336 342 341 336 330 325 321 321 326 334 340 340 340 338 335 331 327 324 320 316 314 312 309 306 307 308 308 307 306 305 303 301 302 296 278 266 269 274 276 279 283 286 288 287 290 300 308 309 309 307 304 303 302 299 298 297 298 302 305 306 309 307 301 299 297 296 294 284 277 274 267 263 265 267 258 237 217 205 194 186
324 339 354 2 1 359 355 345 335 330 329 335 342 348 351 349 344 341 338 334 330 326 323 321 317 313 311 309 307 308 308 308 308 307 305 303 300 298 296 284 272 271 275 277 281 286 289 288 286 288 297 306 308 307 306 304 302 299 299 305 308 304 299 301 306 309 307 301 294 292 293 290 280 273 269 264 261 262 261 258 249 231 216 207 201
21 24 18 9 1 354 346 340 338 342 349 356 356 352 349 346 341 339 337 333 329 326 324 324 320 316 314 313 311 310 308 307 308 307 305 305 302 298 296 289 277 272 275 281 288 291 291 289 286 287 295 303 307 306 306 304 300 299 306 315 314 306 300 303 308 309 307 300 291 290 293 288 276 269 267 265 262 259 254 245 242 238 226 218 215
29 18 9 3 354 345 342 343 349 359 1 357 352 348 346 343 340 339 337 335 332 329 328 327 325 320 317 315 314 314 312 309 307 305 305 304 303 300 298 294 284 274 276 286 293 294 292 289 287 288 293 300 305 306 305 303 300 302 316 322 317 312 309 309 312 313 307 299 294 293 296 290 277 268 269 272 270 263 255 243 232 230 227 223 222
17 9 2 355 348 344 345 350 355 357 354 351 348 346 345 344 341 339 339 339 336 333 331 330 327 323 320 317 316 317 316 314 310 307 305 303 301 297 293 292 288 282 282 288 294 295 293 289 286 287 291 298 304 306 305 305 303 306 321 327 324 321 318 314 315 315 307 301 299 299 301 296 284 278 281 281 275 265 252 237 223 217 219 228 229
10 4 356 351 351 352 353 353 351 348 347 346 345 347 349 349 346 343 343 343 341 338 335 332 329 327 324 321 319 319 319 317 315 313 311 309 307 301 292 286 284 284 285 289 295 296 291 284 283 285 290 297 303 305 305 309 310 310 321 331 331 328 326 320 316 312 306 303 301 300 305 305 294 289 291 281 267 256 240 225 217 215 218 225 225
6 0 357 356 357 356 354 352 349 347 347 348 349 352 357 357 353 351 350 347 343 341 338 335 333 331 328 326 324 323 323 323 322 322 321 319 316 312 305 297 291 288 287 290 296 295 285 277 279 283 288 296 302 302 303 311 317 315 320 329 333 334 333 328 318 312 310 312 310 306 310 309 295 289 291 276 263 255 237 224 221 223 224 218 209
5 1 360 359 356 353 352 353 353 353 356 360 2 3 4 3 0 359 356 351 345 342 341 340 340 339 336 333 332 331 333 333 332 330 328 325 321 316 310 305 300 297 295 295 296 292 282 275 276 280 287 296 299 297 300 308 314 316 319 325 330 335 341 341 334 326 325 327 324 319 319 311 288 274 268 259 254 251 236 228 226 224 215 202 193
4 359 357 355 354 353 354 358 2 6 8 10 11 10 9 8 5 3 2 0 356 352 350 349 349 348 347 345 343 341 339 338 337 337 337 336 333 326 318 312 304 299 298 297 293 286 278 273 274 277 284 293 296 295 296 301 306 311 318 324 329 336 344 347 345 339 336 336 332 326 321 311 286 257 234 228 231 227 220 224 230 227 212 197 188
3 358 356 357 358 1 5 10 13 14 14 13 12 10 9 9 8 4 2 1 359 358 356 354 353 353 352 351 350 347 341 339 340 342 343 342 341 337 332 324 314 304 298 293 286 278 271 268 270 273 278 286 291 289 288 291 297 304 314 323 330 337 345 349 348 344 340 338 337 330 316 299 272 230 200 195 206 207 211 228 240 237 221 205 192
4 2 1 5 11 15 18 19 17 16 16 14 11 7 3 3 4 3 1 359 357 356 354 352 352 353 352 351 351 348 345 345 345 345 345 343 342 341 338 333 325 313 303 292 279 269 264 261 263 268 271 277 284 285 281 279 284 293 306 320 331 340 346 350 351 348 344 339 339 337 323 299 267 228 208 203 204 205 216 243 251 247 235 221 206
8 10 11 16 22 23 21 19 17 16 15 13 11 7 0 356 355 357 358 358 355 353 351 351 351 351 351 351 351 348 346 347 348 347 347 347 346 343 341 338 334 325 314 300 279 266 260 254 255 263 267 271 279 282 277 270 269 278 294 310 328 341 348 352 352 350 348 343 340 339 332 316 297 276 253 234 224 218 213 233 256 264 256 234 214
16 20 22 24 25 23 20 19 18 18 16 13 10 7 3 357 352 349 350 351 351 350 351 351 351 350 349 350 350 349 348 348 349 348 348 349 348 345 341 341 340 337 329 312 285 272 268 260 254 257 262 268 277 281 273 262 258 262 278 300 327 342 348 353 351 347 346 346 344 341 335 325 314 298 275 250 233 227 223 228 273 296 282 238 210
24 28 28 27 25 23 22 23 22 20 18 15 11 8 5 1 356 350 347 346 347 348 350 351 351 349 348 349 350 350 348 348 348 347 347 347 347 345 343 342 342 342 338 324 299 285 280 271 260 256 257 262 272 275 265 251 241 235 246 287 321 335 341 350 349 343 341 346 349 347 342 331 319 309 288 261 239 229 233 239 262 327 323 261 203
29 28 26 24 22 23 25 25 22 19 17 15 12 8 4 1 358 354 350 347 346 346 346 348 349 349 349 350 350 350 348 347 346 345 344 344 345 345 345 342 339 337 333 324 308 295 287 280 274 270 266 263 271 272 255 234 220 210 211 258 291 316 342 353 350 342 340 347 352 352 348 335 318 306 288 261 238 228 236 246 247 290 329 314 205
28 24 23 23 23 24 24 21 20 18 16 14 11 7 5 2 359 356 354 352 350 347 345 345 347 348 349 350 349 348 346 345 343 342 342 342 343 344 343 339 334 330 327 322 316 308 298 292 292 288 280 273 272 261 232 207 196 198 197 222 269 315 351 354 349 343 342 348 354 356 355 346 328 315 297 263 242 237 242 251 249 249 297 322 249
29 26 26 26 24 24 21 18 17 16 14 13 10 6 5 4 1 359 358 356 353 351 348 346 346 346 347 348 347 346 343 341 342 343 343 343 344 343 340 336 332 329 326 323 321 317 309 301 301 299 288 277 266 240 207 186 175 180 193 212 265 319 340 343 346 348 348 350 352 355 0 359 349 339 322 280 253 247 243 247 251 241 258 311 298
30 29 29 27 23 21 18 15 15 14 12 12 11 8 6 5 4 3 1 358 356 354 351 349 348 347 346 345 344 344 342 341 343 345 344 344 343 340 337 334 329 326 326 324 322 319 311 306 310 309 292 270 235 183 180 173 151 143 172 314 331 331 332 337 346 353 357 359 357 354 358 2 2 358 347 308 270 257 243 237 245 238 236 289 314
26 26 24 20 19 18 16 15 15 14 13 13 12 10 9 7 6 5 3 1 359 356 352 350 349 348 347 345 345 345 344 342 343 343 341 340 339 337 335 333 329 325 324 323 322 321 314 310 318 316 287 239 182 155 162 145 99 66 34 26 16 1 353 353 1 6 9 11 10 3 359 2 7 11 8 352 316 279 250 233 230 231 230 248 310
24 22 19 16 16 15 14 16 18 17 16 15 14 13 12 10 9 7 6 3 0 357 354 353 351 350 349 349 348 346 344 341 341 341 339 338 337 335 333 331 328 325 323 321 322 322 316 312 320 318 284 214 159 138 130 105 80 64 53 45 39 30 19 15 18 22 21 19 18 15 10 8 10 12 13 11 2 330 271 240 228 226 228 234 258
21 18 16 14 14 13 14 20 24 22 20 19 18 16 15 12 10 8 6 3 359 356 355 355 352 350 351 351 351 349 346 343 342 342 341 339 338 335 333 331 328 324 322 321 321 320 317 316 319 315 289 156 122 108 97 84 73 65 60 53 47 41 31 21 19 21 21 20 19 19 18 16 13 11 11 10 10 5 339 268 236 228 226 228 234
17 16 13 13 15 18 23 28 29 26 24 24 23 19 16 13 12 10 6 3 0 358 357 356 353 352 353 355 356 355 352 348 345 344 343 343 343 340 339 338 333 326 322 321 322 323 323 318 314 30 101 98 93 86 80 74 67 61 55 48 41 34 25 16 12 12 12 13 14 15 18 18 15 14 12 7 5 7 4 342 271 238 227 222 222
15 16 17 19 23 28 31 33 33 30 28 26 23 20 19 16 14 11 7 4 3 2 1 359 357 355 356 358 359 358 354 350 347 345 345 347 348 349 350 352 350 344 335 329 326 328 331 349 90 94 90 87 83 78 74 69 63 57 49 41 32 24 17 12 8 3 1 3 5 6 9 12 14 16 15 11 8 6 2 357 337 280 243 228 218
12 17 22 26 30 34 36 37 35 32 29 28 25 23 20 17 13 11 9 7 6 5 4 2 360 358 357 358 359 358 355 351 350 349 349 352 355 359 5 11 15 18 20 21 24 35 58 76 82 82 80 77 74 71 66 59 53 46 39 32 25 16 10 8 4 358 352 352 355 358 360 1 6 12 13 10 10 7 0 356 354 340 288 243 224
15 23 30 34 39 41 41 39 36 32 30 30 26 21 17 15 13 13 11 8 6 5 5 3 1 359 358 359 359 357 355 354 354 354 357 1 4 7 15 23 30 35 41 48 56 61 64 65 66 68 68 65 63 61 56 51 47 41 34 28 22 16 11 7 2 355 348 344 348 354 355 355 2 7 6 4 6 6 2 357 351 348 346 291 240
25 36 42 44 47 49 46 41 37 36 34 30 23 16 14 14 14 13 11 8 7 6 4 3 2 2 1 0 359 358 358 359 359 359 5 13 17 19 24 30 36 39 43 48 53 55 56 56 57 58 58 56 55 54 51 48 44 39 34 29 25 21 16 11 6 2 355 348 349 352 353 356 4 5 2 2 4 2 1 1 353 338 327 320 291
40 47 51 53 56 56 51 44 41 39 34 27 21 16 14 12 11 10 8 7 6 6 4 3 3 2 0 358 356 356 359 1 2 3 10 19 27 33 38 42 44 46 48 50 50 50 51 52 53 53 53 52 50 49 46 43 40 35 31 27 24 20 15 10 9 8 4 359 356 354 355 2 7 4 2 7 8 2 357 359 357 345 323 304 306
53 56 58 62 64 60 52 46 44 39 31 24 19 16 14 11 10 10 9 7 5 5 3 2 1 359 358 357 356 356 357 359 1 5 12 18 26 35 42 46 47 48 49 50 50 50 50 50 51 51 50 48 46 44 42 40 36 32 28 24 20 15 10 9 11 11 8 8 11 10 9 12 14 9 8 11 10 5 359 354 353 351 337 311 298
65 65 65 67 67 62 53 49 45 37 28 23 18 15 14 14 13 12 9 6 5 3 2 2 1 359 359 359 357 356 358 358 357 5 17 21 20 25 36 44 47 48 48 47 47 48 48 48 49 49 47 45 44 42 40 38 35 31 27 23 18 14 10 10 14 15 14 16 21 24 24 25 25 21 17 14 9 5 0 353 350 351 347 331 302
73 70 69 70 70 64 58 53 45 36 29 25 20 16 14 15 14 11 7 5 5 4 4 4 3 360 360 1 358 357 360 359 356 4 19 23 17 15 25 34 38 42 46 45 44 44 44 44 44 44 43 42 41 40 38 36 33 31 27 23 20 18 15 11 11 15 18 22 26 27 28 30 30 24 19 15 9 3 0 356 353 350 348 343 327
77 72 70 74 74 67 58 50 42 34 28 25 22 18 15 12 10 8 6 5 5 4 2 2 1 359 359 0 359 358 1 2 1 7 17 18 13 16 24 28 28 33 39 41 41 41 42 42 41 41 40 38 38 37 35 34 32 30 27 23 20 21 20 16 10 9 14 23 31 32 29 30 31 26 20 16 12 6 2 2 1 355 346 342 336